STARLINK-32463 (62130 NORAD) Tracking and Keplerian Element Data

This shows tracking and keplerian element data for the satellite.

Feedback or suggestion? Click here.




ElementValue
Catalog62130
NameSTARLINK-32463
Epoch Orbit1159
Epoch Day33.95238896
Epoch Year2025
RAAN235.4762
Inclination42.9947
Eccentricity0.0001906
Argument of Perigee188.0234
Mean Anonmoly172.0592
Mean Motion15.40693028
Decay Rate4.031E-05
L11 62130U 24222S 25033.95238896 .00004031 00000+0 10374-3 0 9992
L22 62130 42.9947 235.4762 0001906 188.0234 172.0592 15.40693028 11590



Live tracking and technical data element details for STARLINK-32463 (NORAD 62130). STARLINK-32463 can be tracked NOW for your location showing map with azimuth and elevation plus other details from your city location.







IsCatalogInMostPopularTable: catalog: 62130, numindb: 25
Update: records affected: 1



GetName: 62130 STARLINK-32463

Hit Count: updated at: Sun, 18 May 2025 23:04:16 GMT